KF5FGL Weather Reports


time (UTC)temp
C
wind
direction
speed
KPH
gust
KPH
rain 1hr
cm
rain 24hr
cm
rain mn
cm
humidity
%
barometer
mb
20260507004513 19 35 8.0 25.7 0.00 0.00 0.00 79 1009.6
20260507003027 20 3 6.4 25.7 0.00 0.00 0.00 79 1009.8
20260507001515 20 346 11.3 24.1 0.00 0.00 0.00 77 1009.6
20260507000036 22 74 9.7 20.9 0.00 0.00 0.00 75 1009.0
20260506234517 22 351 8.0 20.9 0.00 0.00 0.00 75 1008.9
20260506233003 22 47 6.4 27.4 0.00 0.00 0.00 74 1008.8
20260506231520 23 67 8.0 25.7 0.00 0.00 0.00 73 1008.6
20260506230008 24 321 9.7 27.4 0.00 0.00 0.00 72 1008.4
20260506224525 25 10 12.9 25.7 0.00 0.00 0.00 72 1008.1
20260506223015 25 351 9.7 22.5 0.00 0.00 0.00 71 1007.8
20260506221505 26 31 9.7 20.9 0.00 0.00 0.00 72 1007.5
20260506220024 26 11 6.4 22.5 0.00 0.00 0.00 73 1007.6
20260506214513 26 9 6.4 20.9 0.00 0.00 0.00 75 1007.6
20260506213002 27 4 6.4 19.3 0.00 0.00 0.00 74 1007.5
20260506211536 28 79 4.8 11.3 0.00 0.00 0.00 74 1007.2
20260506210017 28 89 3.2 16.1 0.00 0.00 0.00 73 1007.4
20260506204533 29 54 6.4 11.3 0.00 0.00 0.00 68 1007.2
20260506203016 29 92 1.6 9.7 0.00 0.00 0.00 67 1007.7
20260506201507 30 351 4.8 11.3 0.00 0.00 0.00 65 1007.9
20260506200029 31 108 1.6 9.7 0.00 0.00 0.00 64 1007.8
20260506194510 29 117 1.6 12.9 0.00 0.00 0.00 71 1007.8
20260506193100 28 84 0.0 9.7 0.00 0.00 0.00 74 1007.8
20260506191517 28 119 3.2 8.0 0.00 0.00 0.00 72 1008.1
20260506190007 28 67 3.2 8.0 0.00 0.00 0.00 74 1008.2
20260506184525 28 87 3.2 9.7 0.00 0.00 0.00 76 1008.3
20260506183011 28 134 3.2 12.9 0.00 0.00 0.00 77 1008.5
20260506181540 27 84 1.6 6.4 0.00 0.00 0.00 79 1008.8
20260506180016 27 88 1.6 11.3 0.00 0.00 0.00 81 1008.9
20260506174501 26 58 6.4 12.9 0.00 0.00 0.00 83 1009.0
20260506173028 26 79 3.2 11.3 0.00 0.00 0.00 84 1009.2
20260506171514 26 22 1.6 9.7 0.00 0.00 0.00 85 1009.3
20260506170031 25 31 1.6 11.3 0.00 0.00 0.00 85 1009.3
20260506164514 25 28 4.8 12.9 0.00 0.00 0.00 85 1009.3
20260506163004 25 32 3.2 9.7 0.00 0.00 0.00 86 1009.3
20260506161521 25 155 1.6 8.0 0.00 0.00 0.00 86 1009.4
20260506160010 24 64 0.0 4.8 0.00 0.00 0.00 86 1009.2
20260506154526 24 69 0.0 4.8 0.00 0.00 0.00 85 1009.0
20260506153017 23 58 1.6 6.4 0.00 0.00 0.00 85 1008.8
20260506151532 23 98 1.6 4.8 0.00 0.00 0.00 85 1008.6
20260506150020 23 42 1.6 3.2 0.00 0.00 0.00 85 1008.5
20260506144508 23 75 0.0 4.8 0.00 0.00 0.00 85 1008.5
20260506143029 23 112 0.0 4.8 0.00 0.00 0.00 86 1008.2
20260506141517 23 227 0.0 4.8 0.00 0.00 0.00 86 1007.9
20260506140010 23 141 0.0 4.8 0.00 0.00 0.00 85 1007.7
20260506134522 23 103 1.6 6.4 0.00 0.00 0.00 85 1007.4
20260506133008 23 133 3.2 8.0 0.00 0.00 0.00 85 1007.1
20260506131529 23 119 3.2 6.4 0.00 0.00 0.00 85 1007.1
20260506130021 23 195 1.6 6.4 0.00 0.00 0.00 85 1007.0
20260506124507 23 133 1.6 6.4 0.00 0.00 0.00 85 1007.1
20260506123025 23 130 0.0 6.4 0.00 0.00 0.00 86 1007.1
20260506121511 23 268 0.0 3.2 0.00 0.00 0.00 86 1006.9
20260506120029 23 187 0.0 6.4 0.00 0.00 0.00 86 1006.9
20260506114521 23 145 0.0 6.4 0.00 0.00 0.00 86 1006.8
20260506113006 23 71 1.6 6.4 0.00 0.00 0.00 86 1006.8
20260506111524 23 171 0.0 1.6 0.00 0.00 0.00 86 1006.8
20260506110012 23 173 0.0 3.2 0.00 0.00 0.00 86 1006.8
20260506104636 23 173 0.0 4.8 0.00 0.00 0.00 86 1006.6
20260506103021 24 141 0.0 6.4 0.00 0.00 0.00 86 1006.6
20260506101510 24 181 1.6 6.4 0.00 0.00 0.00 86 1006.5
20260506100039 23 172 1.6 8.0 0.00 0.00 0.00 86 1006.5
20260506094518 23 198 0.0 8.0 0.00 0.00 0.00 86 1006.4
20260506093008 23 191 0.0 6.4 0.00 0.00 0.00 86 1006.3
20260506091529 25 146 0.0 9.7 0.00 0.00 0.00 85 1006.4
20260506090015 24 144 3.2 9.7 0.00 0.00 0.00 86 1006.4
20260506084503 24 189 0.0 8.0 0.00 0.00 0.00 86 1006.5
20260506083035 24 166 3.2 11.3 0.00 0.00 0.00 86 1006.4
20260506081511 24 176 3.2 6.4 0.00 0.00 0.00 85 1006.4
20260506073005 24 163 0.0 9.7 0.00 0.00 0.00 86 1006.9
20260506071525 24 164 1.6 8.0 0.00 0.00 0.00 86 1007.0
20260506061507 25 108 3.2 12.9 0.00 0.00 0.00 85 1007.0
20260506044533 25 183 3.2 9.7 0.00 0.00 0.00 85 1007.0
20260506043017 25 115 1.6 12.9 0.00 0.00 0.00 85 1006.9
20260506041506 25 135 3.2 12.9 0.00 0.00 0.00 85 1006.9
20260506040040 25 152 1.6 4.8 0.00 0.00 0.00 84 1006.7
20260506034514 25 104 3.2 11.3 0.00 0.00 0.00 84 1006.4
20260506033004 25 153 3.2 12.9 0.00 0.00 0.00 85 1006.2
20260506031524 25 111 1.6 14.5 0.00 0.00 0.00 84 1006.2
20260506030013 26 173 1.6 9.7 0.00 0.00 0.00 83 1005.9
20260506024540 26 125 4.8 14.5 0.00 0.00 0.00 83 1005.7
20260506023021 27 117 3.2 12.9 0.00 0.00 0.00 80 1005.6
20260506021514 27 140 0.0 14.5 0.00 0.00 0.00 79 1005.5
20260506020031 28 113 3.2 8.0 0.00 0.00 0.00 77 1005.1
20260506014524 28 141 1.6 14.5 0.00 0.00 0.00 77 1005.0
20260506013008 27 117 3.2 12.9 0.00 0.00 0.00 78 1004.8
20260506011530 27 119 3.2 8.0 0.00 0.00 0.00 76 1004.6
20260506010016 28 77 1.6 8.0 0.00 0.00 0.00 75 1004.3